[ hide orbit diagram ]
For accurate long-term ephemerides, please instead use our Horizons system.This orbit viewer was implemented using two-body methods, and hence should not be used for determining accurate long-term trajectories (over several years or decades) or planetary encounter circumstances.
Orbital Elements at Epoch 2449480.5 (1994-May-08.0) TDB
Reference: JPL H43 (heliocentric ecliptic J2000)
Element | Value | Uncertainty (1-sigma) | Units |
e | .2117793239102651 | 4.0754e-06 | |
a | 6.825465949228127 | 3.6527e-05 | au |
q | 5.379973385128058 | 3.2125e-06 | au |
i | 5.912868375664429 | 3.5307e-05 | deg |
node | 220.7283092701876 | 7.933e-05 | deg |
peri | 354.9484286592523 | 0.0010813 | deg |
M | 2.316747000442115 | 0.00070361 | deg |
tp | 2449438.584660118579 (1994-Mar-27.08466012) | 0.012421 | TDB |
period | 6513.237032110955 17.83 | 0.052283 0.0001431 | d yr |
n | .05527205569598673 | 4.4368e-07 | deg/d |
Q | 8.270958513328196 | 4.4262e-05 | au |
|
| | Orbit Determination Parameters
Additional Information
|
[ show covariance matrix ]
no physical parameters available |
[ show close-approach data ]
Alternate Designations
Perihelion Year (est.) | New-Style Desig | Roman Numeral | Year/ Letter | 1994.2 | D/1993 F2-H | | |
|
|